OBJECT Y, 63232

Orbit data source: Space-Track

You're viewing an Uncataloged Satellite

Recently launched and/or uncataloged satellites may have evolving metadata. Metadata may include but not limited to: Owner, Maufacturer, Bus, Motor, and Mission.

OBJECT Y, 63232 is a satellite in SSO that was launched on Sat, 15 Mar 2025 UTC via an FALCON 9 launch vehicle from the Air Force Western Test Range (AFWTR). Unknown objects in Earth's orbit typically refer to objects detected orbiting the Earth but have not yet been identified or cataloged. These objects could be anything from previously untracked satellites, spent rocket stages, debris from satellite collisions, or even natural meteoroids temporarily captured by Earth's gravity.

Loading next visibility...
Identifier
63232, 2025-052Y
Orbit
SSO
Country
Flag of TBDTBD
Related business
Manufacturer
Astro Digital
Mission
Operational Commercial Technology
Bus & Motor
CORVUS-MICRO, Unknown motor
Mass
32 kg wet, 32 kg dry
Launch date (UTC)
2025-03-15 (1 year ago)
Launch vehicle
FALCON 9
Launch site
Air Force Western Test Range (AFWTR)
Object type
Unknown
Shape & HBR
Box, 1.1 m
Radar Cross Section
0.400 m², Medium (>0.1 m² and < 1m²)

Expand to show TLE details & history
Last TLE update: 22 hours ago

TLE from 22 hours ago
0 OBJECT Y
1 63232U 25052Y   26206.27817988  .00005931  00000-0  24500-3 0  9998
2 63232  97.3904  98.7579 0006571  32.9778 327.1868 15.24364871 75671
Epoch: 2026-07-25T06:40Z
TLE epoch observation values (Epoch: 2026-07-25T06:40:34.741Z)
Latitude
-0.00006°
Longitude
55.6204°
Altitude
491.996 km
Speed
7.621 km/s
True Right ascension
06h 35m 01s
True Declination
0° 00' 00"
Sunlit
Object was in daylight at epoch
Visualization orbit readout
Latitude
Unknown
Longitude
Unknown
Altitude
Unknown
Speed
Unknown
Apparent Right ascension
Unknown
Apparent Declination
Unknown
Sunlit
N/A
Visualization observer readout
Local Sidereal Time
18:16:25
Azimuth
Unknown
Elevation
Unknown
Doppler factor
Unknown
Orbital elements
Apogee altitude
494.165 km
Perigee altitude
485.14 km
Semi-major axis
6,867.79 km
Eccentricity
0.00066
Inclination
97.3904°
RAAN
98.7579°
Arg. of periapsis
32.9778°
True anomaly
327.14597°
Mean anomaly
327.1868°
Eccentric anomaly
327.16639°
Mean motion
3.81345 °/min
Orbital period
94.4 mins
BSTAR
0.000245
Loading maneuver chart data...
Computing Atmospheric mass density...
Loading historical data...
Loading historical data...
Loading historical data...
Loading historical data...
Loading historical data...
Loading historical data...
Loading historical data...

Documentation

Showing up to 5 results
|